Time,TemperatureF,DewpointF,PressureIn,WindDirection,WindDirectionDegrees,WindSpeedMPH,WindSpeedGustMPH,Humidity,HourlyPrecipIn,Conditions,Clouds,dailyrainin,SolarRadiationWatts/m^2,SoftwareType,DateUTC
2013-08-28 10:24:00,69.0,46.0,-100.00,South,175,7.0,13.0,43,0.00,,,0.00,484.000000,,2013-08-28 17:24:00,
2013-08-28 10:35:00,69.0,46.0,-100.00,South,175,7.0,13.0,43,0.00,,,0.00,484.000000,,2013-08-28 17:35:00,
2013-08-28 10:43:00,69.0,46.0,-100.00,South,175,7.0,13.0,43,0.00,,,0.00,484.000000,,2013-08-28 17:43:00,
2013-08-28 10:52:00,69.0,46.0,-100.00,South,175,7.0,13.0,43,0.00,,,0.00,484.000000,,2013-08-28 17:52:00,
2013-08-28 11:22:00,70.0,45.0,-100.00,SSE,168,10.0,19.0,41,0.00,,,0.00,640.000000,,2013-08-28 18:22:00,
2013-08-28 11:32:00,70.0,45.0,-100.00,SSE,168,10.0,19.0,41,0.00,,,0.00,640.000000,,2013-08-28 18:32:00,
2013-08-28 11:42:00,70.0,45.0,-100.00,SSE,168,10.0,19.0,41,0.00,,,0.00,640.000000,,2013-08-28 18:42:00,
2013-08-28 11:52:00,70.0,45.0,-100.00,SSE,168,10.0,19.0,41,0.00,,,0.00,640.000000,,2013-08-28 18:52:00,
2013-08-28 12:21:00,72.0,45.0,-100.00,South,174,11.0,22.0,38,0.00,,,0.00,752.000000,,2013-08-28 19:21:00,
2013-08-28 12:32:00,72.0,45.0,-100.00,South,174,11.0,22.0,38,0.00,,,0.00,752.000000,,2013-08-28 19:32:00,
2013-08-28 12:42:00,72.0,45.0,-100.00,South,174,11.0,22.0,38,0.00,,,0.00,752.000000,,2013-08-28 19:42:00,
2013-08-28 12:52:00,72.0,45.0,-100.00,South,174,11.0,22.0,38,0.00,,,0.00,752.000000,,2013-08-28 19:52:00,
2013-08-28 13:23:00,74.0,43.0,-100.00,South,180,11.0,23.0,33,0.00,,,0.00,898.000000,,2013-08-28 20:23:00,
2013-08-28 13:32:00,74.0,43.0,-100.00,South,180,11.0,23.0,33,0.00,,,0.00,898.000000,,2013-08-28 20:32:00,
2013-08-28 13:43:00,74.0,43.0,-100.00,South,180,11.0,23.0,33,0.00,,,0.00,898.000000,,2013-08-28 20:43:00,
2013-08-28 13:52:00,74.0,43.0,-100.00,South,180,11.0,23.0,33,0.00,,,0.00,898.000000,,2013-08-28 20:52:00,
2013-08-28 13:56:00,76.0,41.0,-100.00,SSW,194,10.0,22.0,28,0.00,,,0.00,913.000000,,2013-08-28 20:56:00,
2013-08-28 14:22:00,76.0,41.0,-100.00,SSW,194,10.0,22.0,28,0.00,,,0.00,913.000000,,2013-08-28 21:22:00,
2013-08-28 14:35:00,76.0,41.0,-100.00,SSW,194,10.0,22.0,28,0.00,,,0.00,913.000000,,2013-08-28 21:35:00,
2013-08-28 14:44:00,76.0,41.0,-100.00,SSW,194,10.0,22.0,28,0.00,,,0.00,913.000000,,2013-08-28 21:44:00,
2013-08-28 15:25:00,75.0,38.0,-100.00,South,171,12.0,25.0,26,0.00,,,0.00,875.000000,,2013-08-28 22:25:00,
2013-08-28 15:34:00,75.0,38.0,-100.00,South,171,12.0,25.0,26,0.00,,,0.00,875.000000,,2013-08-28 22:34:00,
2013-08-28 15:43:00,75.0,38.0,-100.00,South,171,12.0,25.0,26,0.00,,,0.00,875.000000,,2013-08-28 22:43:00,
2013-08-28 15:54:00,75.0,38.0,-100.00,South,171,12.0,25.0,26,0.00,,,0.00,875.000000,,2013-08-28 22:54:00,
2013-08-28 16:22:00,76.0,38.0,-100.00,South,170,9.0,22.0,25,0.00,,,0.00,771.000000,,2013-08-28 23:22:00,
2013-08-28 16:33:00,76.0,38.0,-100.00,South,170,9.0,22.0,25,0.00,,,0.00,771.000000,,2013-08-28 23:33:00,
2013-08-28 16:42:00,76.0,38.0,-100.00,South,170,9.0,22.0,25,0.00,,,0.00,771.000000,,2013-08-28 23:42:00,
2013-08-28 16:53:00,76.0,38.0,-100.00,South,170,9.0,22.0,25,0.00,,,0.00,771.000000,,2013-08-28 23:53:00,
2013-08-28 18:22:00,71.0,38.0,-100.00,SSW,201,8.0,18.0,30,0.00,,,0.00,405.000000,,2013-08-29 01:22:00,
2013-08-28 18:32:00,71.0,38.0,-100.00,SSW,201,8.0,18.0,30,0.00,,,0.00,405.000000,,2013-08-29 01:32:00,
2013-08-28 18:42:00,71.0,38.0,-100.00,SSW,201,8.0,18.0,30,0.00,,,0.00,405.000000,,2013-08-29 01:42:00,
2013-08-28 18:52:00,71.0,38.0,-100.00,SSW,201,8.0,18.0,30,0.00,,,0.00,405.000000,,2013-08-29 01:52:00,
2013-08-28 19:22:00,68.0,39.0,-100.00,South,174,9.0,19.0,34,0.00,,,0.00,226.000000,,2013-08-29 02:22:00,
2013-08-28 19:32:00,68.0,39.0,-100.00,South,174,9.0,19.0,34,0.00,,,0.00,226.000000,,2013-08-29 02:32:00,
2013-08-28 19:43:00,68.0,39.0,-100.00,South,174,9.0,19.0,34,0.00,,,0.00,226.000000,,2013-08-29 02:43:00,
2013-08-28 19:52:00,68.0,39.0,-100.00,South,174,9.0,19.0,34,0.00,,,0.00,226.000000,,2013-08-29 02:52:00,
2013-08-28 19:56:00,63.0,39.0,-100.00,South,177,7.0,16.0,41,0.00,,,0.00,34.000000,,2013-08-29 02:56:00,
2013-08-28 20:22:00,63.0,39.0,-100.00,South,177,7.0,16.0,41,0.00,,,0.00,34.000000,,2013-08-29 03:22:00,
2013-08-28 20:37:00,63.0,39.0,-100.00,South,177,7.0,16.0,41,0.00,,,0.00,34.000000,,2013-08-29 03:37:00,
2013-08-28 20:45:00,63.0,39.0,-100.00,South,177,7.0,16.0,41,0.00,,,0.00,34.000000,,2013-08-29 03:45:00,
2013-08-28 21:28:00,61.0,42.0,-100.00,South,176,6.0,15.0,49,0.00,,,0.00,0.000000,,2013-08-29 04:28:00,
2013-08-28 21:37:00,61.0,42.0,-100.00,South,176,6.0,15.0,49,0.00,,,0.00,0.000000,,2013-08-29 04:37:00,
2013-08-28 21:45:00,61.0,42.0,-100.00,South,176,6.0,15.0,49,0.00,,,0.00,0.000000,,2013-08-29 04:45:00,
2013-08-28 21:54:00,61.0,42.0,-100.00,South,176,6.0,15.0,49,0.00,,,0.00,0.000000,,2013-08-29 04:54:00,
2013-08-28 22:23:00,60.0,45.0,-100.00,SSE,160,7.0,12.0,57,0.00,,,0.00,0.000000,,2013-08-29 05:23:00,
2013-08-28 22:34:00,60.0,45.0,-100.00,SSE,160,7.0,12.0,57,0.00,,,0.00,0.000000,,2013-08-29 05:34:00,
2013-08-28 22:42:00,60.0,45.0,-100.00,SSE,160,7.0,12.0,57,0.00,,,0.00,0.000000,,2013-08-29 05:42:00,
2013-08-28 22:52:00,60.0,45.0,-100.00,SSE,160,7.0,12.0,57,0.00,,,0.00,0.000000,,2013-08-29 05:52:00,
2013-08-28 23:22:00,59.0,44.0,-100.00,South,185,6.0,14.0,57,0.00,,,0.00,0.000000,,2013-08-29 06:22:00,
2013-08-28 23:32:00,59.0,44.0,-100.00,South,185,6.0,14.0,57,0.00,,,0.00,0.000000,,2013-08-29 06:32:00,
2013-08-28 23:43:00,59.0,44.0,-100.00,South,185,6.0,14.0,57,0.00,,,0.00,0.000000,,2013-08-29 06:43:00,
2013-08-28 23:52:00,59.0,44.0,-100.00,South,185,6.0,14.0,57,0.00,,,0.00,0.000000,,2013-08-29 06:52:00,